World > North America > United States > New York

Hourly Pine Valley, NY Regional Weather

Feedback E-mail the Weather

Latest News

Pine Valley, NY Weather Maps

°F °C°F °C
Pine Valley Weather Map
UTC Time: 5/21/2022, 01:55
Your Time:

Pine Valley, NY Regional Weather

Expires:202205210200;;353691
ASUS41 KBGM 210110
RWRBGM

REGIONAL WEATHER ROUNDUP
NATIONAL WEATHER SERVICE BINGHAMTON NY
900 PM EDT FRI MAY 20 2022

Note: "fair" indicates few or no clouds below 12,000 feet with no
significant weather and/or obstructions to visibility.

* = Station(s) that does not report precipitation, such as rain, 
snow, etc, also no thunder or fog.


NYZ009-015>018-022>025-036-037-044>046-055>057-062-210200
...Central New York...
  
CITY           SKY/WX    TMP DP  RH WIND       PRES   REMARKS
Binghamton     MOCLDY    65  62  90 S9        29.88R                  
Cortland       MOCLDY    68  61  77 SW7       29.86R                  
Dansville      MOCLDY    71  64  78 SE9       29.75F                  
Elmira         CLOUDY    72  64  76 SW6       29.82R                  
Endicott       CLOUDY    68  64  88 S5        29.87R                  
Ithaca         MOCLDY    69  64  84 S7        29.85R                  
Hamilton       MOCLDY    70  59  68 S10       29.84F                  
Monticello     LGT RAIN  63  63 100 E3        29.95S VSB 1            
Norwich        MOCLDY    66  61  82 S9        29.88S                  
Oneonta        CLEAR     64  61  88 CALM      29.90S                  
Penn Yan       PTCLDY    71  62  73 S10       29.79R                  
Rome           PTCLDY    73  61  65 SE9       29.81R                  
Seneca Falls   CLEAR     70  61  73 S10       29.78S                  
Sidney         MOCLDY    66  63  88 S6        29.88S                  
Skaneateles    FAIR      72  64  78 VRB7G14   29.81R                  
Syracuse       MOCLDY    73  60  63 S13       29.78R                  
$$
 

SKY/WX - Weather  TMP - Temperature  DP - Dew Point  RH - Humidity
WIND - Wind Direction/Speed PRES - Barometric Pressure VSB - Visibility
WCI - Wind Chill Index E13G22 Wind - East Wind 13 mph/Gusts of 22 mph

Trending Headlines

Pine Valley Radar Loop



Pine Valley Quick Facts


National Two Day Weather Forecast


E-mail the Pine Valley Weather Forecast

Voice your opinion or tell us about page issues...